FW7016 Weather Reports


Display with metric or nautical units.
time (UTC)temp
F
wind
direction
speed
MPH
gust
MPH
rain 1hr
in
rain 24hr
in
rain mn
in
humidity
%
barometer
mb
20260505025056 49 45 5.0 11.0 0.00 0.00 0.00 62 1012.4
20260505024553 48 48 6.0 8.0 0.00 0.00 0.00 63 1012.3
20260505024050 48 72 2.0 5.0 0.00 0.00 0.00 67 1012.3
20260505023547 48 59 5.0 8.0 0.00 0.00 0.00 65 1011.8
20260505023045 49 55 5.0 7.0 0.00 0.00 0.00 66 1012.2
20260505022543 50 56 5.0 11.0 0.00 0.00 0.00 64 1012.2
20260505022040 50 149 0.0 2.0 0.00 0.00 0.00 70 1011.9
20260505021536 50 147 2.0 2.0 0.00 0.00 0.00 72 1011.8
20260505021033 49 144 3.0 5.0 0.00 0.00 0.00 74 1011.9
20260505020532 50 126 5.0 6.0 0.00 0.00 0.00 76 1011.9
20260505020030 50 145 4.0 5.0 0.00 0.00 0.00 77 1012.1
20260505015527 50 140 6.0 7.0 0.00 0.00 0.00 74 1011.8
20260505015024 51 132 5.0 6.0 0.00 0.00 0.00 68 1011.8
20260505014520 51 105 0.0 1.0 0.00 0.00 0.00 66 1011.8
20260505014018 52 154 2.0 3.0 0.00 0.00 0.00 63 1011.6
20260505013515 51 142 5.0 9.0 0.00 0.00 0.00 64 1011.9
20260505013012 49 197 1.0 2.0 0.00 0.00 0.00 75 1011.9
20260505012510 49 174 4.0 9.0 0.00 0.00 0.00 72 1011.9
20260505012007 50 172 7.0 10.0 0.00 0.00 0.00 77 1011.7
20260505011503 51 159 8.0 11.0 0.00 0.00 0.00 69 1011.6
20260505011000 54 231 9.0 15.0 0.00 0.00 0.00 60 1011.5
20260505010455 55 238 2.0 6.0 0.00 0.00 0.00 50 1011.4
20260505005951 55 213 1.0 2.0 0.00 0.00 0.00 52 1011.2
20260505005448 56 191 0.0 1.0 0.00 0.00 0.00 53 1011.1
20260505004946 56 215 2.0 3.0 0.00 0.00 0.00 49 1011.0
20260505004443 56 203 3.0 5.0 0.00 0.00 0.00 47 1010.6
20260505003939 56 151 7.0 9.0 0.00 0.00 0.00 47 1010.5
20260505003437 57 73 6.0 16.0 0.00 0.00 0.00 45 1010.6
20260505002933 58 56 8.0 11.0 0.00 0.00 0.00 44 1010.4
20260505002429 58 81 7.0 9.0 0.00 0.00 0.00 40 1010.4
20260505001928 58 102 10.0 13.0 0.00 0.00 0.00 40 1010.4
20260505001425 59 80 4.0 10.0 0.00 0.00 0.00 40 1010.4
20260505000922 59 37 7.0 13.0 0.00 0.00 0.00 40 1010.3
20260505000420 59 51 1.0 9.0 0.00 0.00 0.00 39 1010.2
20260504235916 59 46 5.0 9.0 0.00 0.00 0.00 39 1010.1
20260504235414 59 46 8.0 9.0 0.00 0.00 0.00 39 1009.9
20260504234909 60 50 7.0 10.0 0.00 0.00 0.00 39 1010.2
20260504234408 60 47 5.0 13.0 0.00 0.00 0.00 39 1009.9
20260504233904 60 54 6.0 9.0 0.00 0.00 0.00 38 1010.1
20260504233359 60 114 5.0 7.0 0.00 0.00 0.00 37 1009.9
20260504232856 60 45 4.0 10.0 0.00 0.00 0.00 38 1010.1
20260504232353 61 63 5.0 14.0 0.00 0.00 0.00 37 1010.1
20260504231850 60 65 5.0 10.0 0.00 0.00 0.00 37 1009.9
20260504231346 60 95 0.0 3.0 0.00 0.00 0.00 38 1010.1
20260504230843 60 60 1.0 2.0 0.00 0.00 0.00 37 1009.8
20260504230341 61 66 4.0 8.0 0.00 0.00 0.00 37 1009.8
20260504225839 60 179 2.0 6.0 0.00 0.00 0.00 37 1010.1
20260504225335 61 227 2.0 3.0 0.00 0.00 0.00 37 1010.2
20260504224833 61 100 3.0 7.0 0.00 0.00 0.00 36 1009.8
20260504224330 61 110 8.0 9.0 0.00 0.00 0.00 36 1009.6
20260504223826 61 101 3.0 7.0 0.00 0.00 0.00 37 1009.8
20260504223322 62 96 7.0 9.0 0.00 0.00 0.00 36 1009.9
20260504222819 61 25 4.0 7.0 0.00 0.00 0.00 36 1009.7
20260504222316 61 56 6.0 8.0 0.00 0.00 0.00 37 1009.7
20260504221815 61 91 4.0 9.0 0.00 0.00 0.00 38 1009.8
20260504221310 61 46 3.0 9.0 0.00 0.00 0.00 37 1010.1
20260504220807 61 40 9.0 11.0 0.00 0.00 0.00 37 1010.1
20260504220304 61 32 11.0 11.0 0.00 0.00 0.00 37 1010.2
20260504215801 60 23 7.0 18.0 0.00 0.00 0.00 38 1010.2
20260504215258 61 51 7.0 9.0 0.00 0.00 0.00 37 1010.4
20260504214754 61 33 5.0 9.0 0.00 0.00 0.00 37 1009.9
20260504214251 60 66 5.0 9.0 0.00 0.00 0.00 38 1010.3
20260504213747 61 36 9.0 14.0 0.00 0.00 0.00 37 1010.4
20260504213243 60 30 8.0 11.0 0.00 0.00 0.00 37 1010.3
20260504212740 61 37 9.0 13.0 0.00 0.00 0.00 37 1010.5
20260504212237 61 24 15.0 24.0 0.00 0.00 0.00 37 1010.1
20260504211735 61 56 7.0 13.0 0.00 0.00 0.00 36 1010.4
20260504211231 61 9 13.0 16.0 0.00 0.00 0.00 37 1010.4
20260504210728 62 26 11.0 20.0 0.00 0.00 0.00 36 1010.5
20260504210225 61 73 2.0 10.0 0.00 0.00 0.00 37 1010.5
20260504205722 61 43 7.0 13.0 0.00 0.00 0.00 37 1010.5
20260504205220 62 33 15.0 21.0 0.00 0.00 0.00 37 1010.6
20260504204718 62 351 9.0 18.0 0.00 0.00 0.00 37 1010.4
20260504204216 62 34 12.0 17.0 0.00 0.00 0.00 37 1010.5
20260504203715 62 26 12.0 17.0 0.00 0.00 0.00 37 1010.4
20260504203212 62 16 20.0 22.0 0.00 0.00 0.00 37 1010.3
20260504202711 62 18 11.0 14.0 0.00 0.00 0.00 36 1010.5
20260504202204 62 94 5.0 10.0 0.00 0.00 0.00 37 1010.4
20260504201700 63 36 13.0 20.0 0.00 0.00 0.00 37 1010.3
20260504201158 62 341 14.0 20.0 0.00 0.00 0.00 36 1010.3
20260504200655 63 6 19.0 23.0 0.00 0.00 0.00 36 1010.6
20260504200152 63 19 13.0 20.0 0.00 0.00 0.00 36 1010.4
20260504195647 63 26 13.0 17.0 0.00 0.00 0.00 36 1010.1
20260504195144 64 12 19.0 23.0 0.00 0.00 0.00 34 1010.3
20260504194641 62 358 18.0 27.0 0.00 0.00 0.00 38 1010.2
20260504194137 65 58 15.0 18.0 0.00 0.00 0.00 36 1010.3
20260504193633 64 16 15.0 22.0 0.00 0.00 0.00 34 1010.2
20260504193132 64 68 7.0 16.0 0.00 0.00 0.00 35 1010.1
20260504192629 63 35 10.0 22.0 0.00 0.00 0.00 35 1010.2
20260504192127 64 59 17.0 25.0 0.00 0.00 0.00 36 1010.3
20260504191625 64 32 13.0 22.0 0.00 0.00 0.00 34 1010.3
20260504191121 64 355 15.0 26.0 0.00 0.00 0.00 36 1010.1
20260504190617 64 22 11.0 21.0 0.00 0.00 0.00 35 1009.8
20260504190114 64 26 17.0 25.0 0.00 0.00 0.00 34 1010.1
20260504185610 64 41 10.0 30.0 0.00 0.00 0.00 35 1010.2
20260504185107 64 11 13.0 25.0 0.00 0.00 0.00 35 1010.3
20260504184603 64 10 21.0 31.0 0.00 0.00 0.00 35 1010.2
20260504184058 64 35 11.0 24.0 0.00 0.00 0.00 35 1010.3
20260504183555 64 25 24.0 33.0 0.00 0.00 0.00 34 1010.4
20260504183054 65 40 19.0 26.0 0.00 0.00 0.00 33 1010.3
20260504182550 65 352 17.0 21.0 0.00 0.00 0.00 32 1010.3
20260504182048 64 27 18.0 27.0 0.00 0.00 0.00 34 1010.4
20260504181544 65 30 19.0 26.0 0.00 0.00 0.00 33 1010.2
20260504181043 66 359 24.0 26.0 0.00 0.00 0.00 32 1010.4
20260504180541 64 9 22.0 27.0 0.00 0.00 0.00 32 1010.4
20260504180040 65 26 20.0 24.0 0.00 0.00 0.00 31 1010.5
20260504175537 64 43 18.0 26.0 0.00 0.00 0.00 31 1010.4
20260504175034 63 9 18.0 23.0 0.00 0.00 0.00 31 1010.3
20260504174532 64 20 15.0 23.0 0.00 0.00 0.00 31 1010.3
20260504174028 64 28 31.0 35.0 0.00 0.00 0.00 30 1010.2
20260504173525 63 28 25.0 32.0 0.00 0.00 0.00 31 1010.1
20260504173022 62 72 16.0 27.0 0.00 0.00 0.00 31 1009.9
20260504172518 62 26 28.0 33.0 0.00 0.00 0.00 31 1010.2
20260504172015 64 7 23.0 39.0 0.00 0.00 0.00 31 1009.6
20260504171512 66 6 10.0 11.0 0.00 0.00 0.00 24 1009.6
20260504171009 66 38 6.0 7.0 0.00 0.00 0.00 24 1009.5
20260504170504 67 19 10.0 15.0 0.00 0.00 0.00 24 1009.5
20260504160425 66 40 3.0 9.0 0.00 0.00 0.00 24 1009.5
20260504150849 64 318 7.0 14.0 0.00 0.00 0.00 24 1009.5
20260504150345 63 359 7.0 11.0 0.00 0.00 0.00 26 1009.7
20260504141315 57 275 11.0 13.0 0.00 0.00 0.00 31 1010.2
20260504140812 57 255 10.0 13.0 0.00 0.00 0.00 32 1010.2
20260504140308 56 290 6.0 13.0 0.00 0.00 0.00 34 1009.9
20260504130737 48 212 3.0 5.0 0.00 0.00 0.00 50 1009.7
20260504130232 47 219 2.0 3.0 0.00 0.00 0.00 54 1009.7
20260504120156 37 270 6.0 9.0 0.00 0.00 0.00 65 1009.8
20260504110624 37 282 2.0 5.0 0.00 0.00 0.00 68 1009.8
20260504110120 37 201 0.0 1.0 0.00 0.00 0.00 68 1010.1
20260504100545 36 268 0.0 0.0 0.00 0.00 0.00 68 1010.2
20260504081939 35 181 1.0 1.0 0.00 0.00 0.00 67 1010.9
20260504081436 35 225 3.0 7.0 0.00 0.00 0.00 67 1011.1
20260504080932 36 280 3.0 6.0 0.00 0.00 0.00 66 1011.1
20260504080428 37 223 0.0 0.0 0.00 0.00 0.00 68 1011.2
20260504070356 37 207 0.0 1.0 0.00 0.00 0.00 62 1012.3
20260504050744 42 197 0.0 0.0 0.00 0.00 0.00 64 1012.3
20260504050241 42 197 0.0 0.0 0.00 0.00 0.00 64 1012.8
20260504045738 42 207 0.0 0.0 0.00 0.00 0.00 65 1012.5
20260504045233 42 206 0.0 0.0 0.00 0.00 0.00 62 1012.4
20260504044731 43 198 0.0 0.0 0.00 0.00 0.00 68 1012.9
20260504044228 44 201 0.0 0.0 0.00 0.00 0.00 55 1012.7
20260504043725 44 229 1.0 3.0 0.00 0.00 0.00 54 1012.7
20260504043222 44 239 0.0 2.0 0.00 0.00 0.00 55 1012.9
20260504042720 45 250 3.0 3.0 0.00 0.00 0.00 54 1013.0
20260504042216 46 204 0.0 0.0 0.00 0.00 0.00 53 1013.0
20260504041712 46 224 0.0 0.0 0.00 0.00 0.00 52 1013.1
20260504041208 45 217 0.0 0.0 0.00 0.00 0.00 52 1013.1
20260504040705 46 233 0.0 3.0 0.00 0.00 0.00 51 1013.1
20260504040202 48 282 0.0 3.0 0.00 0.00 0.00 48 1013.1
20260504035658 49 194 2.0 2.0 0.00 0.00 0.00 50 1013.4
20260504035155 51 180 0.0 2.0 0.00 0.00 0.00 47 1013.2
20260504034653 51 129 3.0 3.0 0.00 0.00 0.00 47 1013.1
20260504034150 52 157 3.0 3.0 0.00 0.00 0.00 46 1012.8
20260504033648 52 115 3.0 5.0 0.00 0.00 0.00 46 1012.5
20260504033145 51 102 3.0 5.0 0.00 0.00 0.00 46 1012.8
20260504032641 52 132 4.0 6.0 0.00 0.00 0.00 45 1012.8
20260504032139 52 97 2.0 2.0 0.00 0.00 0.00 45 1013.0
20260504031636 53 106 0.0 2.0 0.00 0.00 0.00 45 1012.9
20260504031132 53 124 3.0 6.0 0.00 0.00 0.00 44 1012.9
20260504030629 52 125 3.0 3.0 0.00 0.00 0.00 44 1012.7
20260504030125 51 111 3.0 3.0 0.00 0.00 0.00 45 1012.7
20260504025622 51 78 2.0 5.0 0.00 0.00 0.00 45 1012.9